WZZ2203 EGGW-ELLX

Flight info

Callsign WZZ2203
Flight time 0h 57m
Altitude 23000
Route MATCH Q295 BRAIN P44 DAGGA M85 ITVIP L10 DVR L9 KONAN/N0442F350 UL607 REMBA
Aircraft A20N/M-SDE2E3FGHIRWXY/LB1

Departure

Time 2026-05-04 16:44
Airport London Luton Airport (EGGW)

Arrival

Time 2026-05-04 17:42
Airport Luxembourg-Findel International Airport (ELLX)
Time Latitude Longitude Altitude Speed Heading
2026-05-04 15:56 51.88194 -0.37342 518 ft 0 kts 161°
2026-05-04 16:02 51.88181 -0.37401 520 ft 0 kts 161°
2026-05-04 16:02 51.88170 -0.37395 520 ft 0 kts 161°
2026-05-04 16:32 51.88191 -0.37406 520 ft 2 kts 175°
2026-05-04 16:33 51.88219 -0.37401 520 ft 2 kts 198°
2026-05-04 16:33 51.88242 -0.37381 518 ft 1 kts 221°
2026-05-04 16:34 51.88258 -0.37349 517 ft 1 kts 244°
2026-05-04 16:34 51.88261 -0.37337 516 ft 1 kts 251°
2026-05-04 16:35 51.88263 -0.37329 516 ft 0 kts 251°
2026-05-04 16:37 51.88261 -0.37335 516 ft 0 kts 251°
2026-05-04 16:37 51.88206 -0.37580 525 ft 17 kts 244°
2026-05-04 16:38 51.88100 -0.37833 531 ft 14 kts 220°
2026-05-04 16:39 51.87874 -0.38010 528 ft 11 kts 162°
2026-05-04 16:39 51.87783 -0.37859 529 ft 12 kts 118°
2026-05-04 16:40 51.87694 -0.37548 528 ft 12 kts 124°
2026-05-04 16:40 51.87529 -0.37484 530 ft 12 kts 211°
2026-05-04 16:41 51.87410 -0.37665 531 ft 0 kts 222°
2026-05-04 16:42 51.87343 -0.37535 531 ft 3 kts 73°
2026-05-04 16:43 51.87344 -0.37529 531 ft 0 kts 73°
2026-05-04 16:43 51.87601 -0.36048 516 ft 144 kts 75°
2026-05-04 16:43 51.87906 -0.34278 663 ft 187 kts 72°
2026-05-04 16:44 51.89690 -0.23388 3390 ft 298 kts 84°
2026-05-04 16:45 51.88321 -0.16668 4738 ft 356 kts 128°
2026-05-04 16:46 51.81981 -0.12536 4952 ft 299 kts 189°
2026-05-04 16:46 51.78154 -0.12484 4952 ft 272 kts 165°
2026-05-04 16:47 51.75414 -0.08835 4955 ft 268 kts 107°
2026-05-04 16:47 51.75520 -0.02974 4955 ft 266 kts 79°
2026-05-04 16:48 51.76344 0.05847 4966 ft 259 kts 81°
2026-05-04 16:48 51.76586 0.08705 4959 ft 262 kts 81°
2026-05-04 16:49 51.77073 0.14584 4953 ft 266 kts 81°
2026-05-04 16:49 51.77565 0.20616 5826 ft 282 kts 81°
2026-05-04 16:50 51.78089 0.27043 7316 ft 299 kts 82°
2026-05-04 16:50 51.78640 0.33878 8831 ft 314 kts 82°
2026-05-04 16:51 51.79217 0.41096 9885 ft 328 kts 82°
2026-05-04 16:51 51.79510 0.44792 9961 ft 329 kts 82°
2026-05-04 16:51 51.80088 0.52128 9948 ft 328 kts 82°
2026-05-04 16:52 51.80664 0.59485 9966 ft 329 kts 82°
2026-05-04 16:52 51.80950 0.63148 9960 ft 329 kts 82°
2026-05-04 16:53 51.81519 0.70483 9950 ft 329 kts 83°
2026-05-04 16:53 51.79415 0.80353 11636 ft 329 kts 145°
2026-05-04 16:54 51.77425 0.81922 12376 ft 327 kts 163°
2026-05-04 16:55 51.68753 0.85995 15355 ft 326 kts 164°
2026-05-04 16:55 51.64447 0.88068 16881 ft 321 kts 164°
2026-05-04 16:56 51.60271 0.90094 18385 ft 314 kts 164°
2026-05-04 16:56 51.54204 0.93048 20676 ft 298 kts 165°
2026-05-04 16:57 51.52249 0.93998 21450 ft 290 kts 165°
2026-05-04 16:57 51.48491 0.95820 22768 ft 281 kts 166°
2026-05-04 16:58 51.42474 0.98704 23001 ft 328 kts 165°
2026-05-04 16:58 51.40213 0.99792 23000 ft 345 kts 165°
2026-05-04 16:59 51.35412 1.02102 22993 ft 375 kts 165°
2026-05-04 17:00 51.26526 1.10450 22989 ft 391 kts 126°
2026-05-04 17:00 51.22136 1.21452 22978 ft 390 kts 124°
2026-05-04 17:01 51.19190 1.28718 23072 ft 389 kts 125°
2026-05-04 17:01 51.16660 1.36110 24506 ft 382 kts 111°
2026-05-04 17:02 51.15740 1.44623 24981 ft 402 kts 96°
2026-05-04 17:02 51.15351 1.53750 24979 ft 427 kts 95°
2026-05-04 17:03 51.15141 1.58496 24977 ft 438 kts 96°
2026-05-04 17:03 51.14916 1.63357 24976 ft 447 kts 95°
2026-05-04 17:03 51.14437 1.73288 24974 ft 449 kts 97°
2026-05-04 17:04 51.13941 1.83186 24977 ft 448 kts 96°
2026-05-04 17:04 51.13431 1.93129 24976 ft 448 kts 96°
2026-05-04 17:05 51.12914 2.02996 24975 ft 448 kts 96°
2026-05-04 17:05 51.12387 2.12878 24973 ft 448 kts 96°
2026-05-04 17:06 51.11853 2.22775 24973 ft 448 kts 96°
2026-05-04 17:06 51.11584 2.27704 24975 ft 449 kts 96°
2026-05-04 17:07 51.11039 2.37560 24969 ft 449 kts 96°
2026-05-04 17:07 51.10856 2.40842 24970 ft 449 kts 96°
2026-05-04 17:07 51.10485 2.47437 24969 ft 449 kts 96°
2026-05-04 17:07 51.10203 2.52398 24967 ft 449 kts 96°
2026-05-04 17:08 51.09922 2.57312 24970 ft 448 kts 96°
2026-05-04 17:08 51.08992 2.67073 24967 ft 447 kts 104°
2026-05-04 17:08 51.08262 2.71845 24966 ft 446 kts 107°
2026-05-04 17:09 51.07415 2.76566 24972 ft 446 kts 108°
2026-05-04 17:09 51.06558 2.81272 24967 ft 446 kts 108°
2026-05-04 17:09 51.05696 2.85981 24967 ft 446 kts 108°
2026-05-04 17:10 51.04004 2.95208 24961 ft 460 kts 108°
2026-05-04 17:10 51.01272 3.10061 24950 ft 471 kts 108°
2026-05-04 17:11 51.00357 3.15019 24956 ft 472 kts 108°
2026-05-04 17:11 50.99445 3.19953 24947 ft 472 kts 108°
2026-05-04 17:11 50.97598 3.29910 24947 ft 472 kts 108°
2026-05-04 17:12 50.96669 3.34899 24946 ft 472 kts 108°
2026-05-04 17:12 50.94814 3.44824 24936 ft 472 kts 108°
2026-05-04 17:13 50.91996 3.59782 24934 ft 472 kts 108°
2026-05-04 17:14 50.89183 3.74480 24931 ft 472 kts 109°
2026-05-04 17:14 50.88231 3.79403 24926 ft 472 kts 108°
2026-05-04 17:14 50.86334 3.89175 24928 ft 472 kts 109°
2026-05-04 17:15 50.85372 3.94109 24928 ft 472 kts 109°
2026-05-04 17:15 50.83453 4.03945 24930 ft 472 kts 109°
2026-05-04 17:16 50.81545 4.13675 24934 ft 472 kts 109°
2026-05-04 17:16 50.78676 4.28197 24939 ft 472 kts 109°
2026-05-04 17:17 50.77725 4.32995 24940 ft 472 kts 109°
2026-05-04 17:17 50.74803 4.47647 24945 ft 472 kts 109°
2026-05-04 17:18 50.73812 4.52595 24948 ft 472 kts 109°
2026-05-04 17:18 50.71845 4.62395 24815 ft 470 kts 109°
2026-05-04 17:19 50.69976 4.72039 22828 ft 464 kts 108°
2026-05-04 17:19 50.68186 4.81304 20811 ft 431 kts 108°
2026-05-04 17:20 50.66247 4.89688 18789 ft 400 kts 118°
2026-05-04 17:20 50.63123 4.96276 16858 ft 377 kts 134°
2026-05-04 17:20 50.61318 4.99096 15875 ft 368 kts 135°
2026-05-04 17:21 50.57774 5.04517 13904 ft 353 kts 135°
2026-05-04 17:21 50.54382 5.09732 11948 ft 341 kts 135°
2026-05-04 17:22 50.52741 5.12257 11016 ft 334 kts 135°
2026-05-04 17:22 50.51132 5.14732 10369 ft 319 kts 135°
2026-05-04 17:23 50.46831 5.21347 9933 ft 240 kts 135°
2026-05-04 17:23 50.45686 5.23112 9950 ft 233 kts 134°
2026-05-04 17:23 50.43052 5.27161 9974 ft 299 kts 135°
2026-05-04 17:24 50.41495 5.29550 9968 ft 329 kts 135°
2026-05-04 17:24 50.36034 5.37896 9977 ft 402 kts 135°
2026-05-04 17:25 50.34112 5.40890 10450 ft 379 kts 135°
2026-05-04 17:25 50.30604 5.46378 11089 ft 342 kts 135°
2026-05-04 17:26 50.27402 5.51413 11636 ft 321 kts 136°
2026-05-04 17:26 50.22679 5.58826 12450 ft 338 kts 136°
2026-05-04 17:27 50.19169 5.64114 12683 ft 367 kts 139°
2026-05-04 17:27 50.15539 5.69163 12190 ft 346 kts 140°
2026-05-04 17:28 50.12130 5.74163 11691 ft 328 kts 139°
2026-05-04 17:29 50.07400 5.81252 10945 ft 306 kts 139°
2026-05-04 17:29 50.02861 5.88055 10199 ft 301 kts 139°
2026-05-04 17:30 49.98380 5.94748 8880 ft 310 kts 139°
2026-05-04 17:31 49.95210 5.99469 7379 ft 326 kts 139°
2026-05-04 17:31 49.90199 6.06915 5271 ft 338 kts 139°
2026-05-04 17:32 49.86512 6.10718 4951 ft 304 kts 169°
2026-05-04 17:33 49.81641 6.08959 4965 ft 260 kts 210°
2026-05-04 17:33 49.80123 6.07548 4966 ft 250 kts 210°
2026-05-04 17:34 49.75691 6.03458 4367 ft 253 kts 210°
2026-05-04 17:34 49.74189 6.02087 4036 ft 253 kts 209°
2026-05-04 17:35 49.69868 5.98160 3978 ft 247 kts 209°
2026-05-04 17:35 49.66883 5.95456 3972 ft 248 kts 209°
2026-05-04 17:35 49.65396 5.94111 3642 ft 252 kts 209°
2026-05-04 17:36 49.63876 5.92737 3169 ft 257 kts 209°
2026-05-04 17:36 49.62371 5.91377 2963 ft 241 kts 208°
2026-05-04 17:36 49.60892 5.90560 2939 ft 219 kts 183°
2026-05-04 17:36 49.59499 5.90912 2949 ft 208 kts 158°
2026-05-04 17:37 49.58282 5.92006 2958 ft 198 kts 149°
2026-05-04 17:37 49.57138 5.93178 2964 ft 197 kts 149°
2026-05-04 17:37 49.56006 5.94333 3047 ft 197 kts 149°
2026-05-04 17:37 49.54869 5.95518 3173 ft 198 kts 143°
2026-05-04 17:38 49.54149 5.97288 3270 ft 209 kts 102°
2026-05-04 17:38 49.54405 5.99490 3406 ft 221 kts 65°
2026-05-04 17:38 49.55204 6.01501 3465 ft 220 kts 60°
2026-05-04 17:38 49.55993 6.03439 3442 ft 210 kts 62°
2026-05-04 17:39 49.57491 6.07225 3055 ft 205 kts 63°
2026-05-04 17:39 49.58182 6.09060 2968 ft 192 kts 64°
2026-05-04 17:39 49.58798 6.10735 2961 ft 186 kts 64°
2026-05-04 17:40 49.59372 6.12307 2718 ft 192 kts 64°
2026-05-04 17:40 49.59925 6.13809 2328 ft 201 kts 63°
2026-05-04 17:40 49.60610 6.15653 1804 ft 207 kts 63°
2026-05-04 17:40 49.61245 6.17393 1406 ft 192 kts 62°
2026-05-04 17:41 49.61836 6.18965 1196 ft 173 kts 62°
2026-05-04 17:41 49.62703 6.21314 1224 ft 76 kts 60°
2026-05-04 17:41 49.62926 6.21907 1213 ft 62 kts 63°
2026-05-04 17:42 49.63106 6.22076 1211 ft 19 kts 334°
2026-05-04 17:42 49.63162 6.22021 1215 ft 5 kts 306°
2026-05-04 17:42 49.63173 6.21985 1217 ft 5 kts 281°
2026-05-04 17:42 49.63150 6.21885 1220 ft 14 kts 239°
2026-05-04 17:43 49.63142 6.21756 1224 ft 11 kts 344°
2026-05-04 17:43 49.63220 6.21706 1229 ft 16 kts 328°
2026-05-04 17:43 49.63298 6.21723 1232 ft 18 kts 54°
2026-05-04 17:43 49.63256 6.21843 1229 ft 13 kts 142°
2026-05-04 17:44 49.63208 6.21876 1224 ft 1 kts 244°
2026-05-04 17:44 49.63209 6.21866 1224 ft 0 kts 279°
2026-05-04 17:44 49.63209 6.21864 1224 ft 10 kts 279°
2026-05-04 17:44 49.63207 6.21821 1225 ft 0 kts 246°
2026-05-04 17:45 49.63199 6.21796 1225 ft 0 kts 243°